Paducah, KY

1:36 PM CDT on June 28, 2017 (GMT -0500)
Barkley Regional

Weather History for KPAH - January, 2014

Change the Weather History Date:

Saturday, January 4, 2014

  Actual Average Record
Temperature  
Mean Temperature 35 °F 34 °F  
Max Temperature 44 °F 43 °F 70 °F (1939)
Min Temperature 25 °F 26 °F 2 °F (1959)
Degree Days  
Heating Degree Days 30 31  
Month to date heating degree days 138 121  
Since 1 July heating degree days 1798 1752  
Cooling Degree Days 0 0  
Month to date cooling degree days 0 0  
Year to date cooling degree days 0 0  
Moisture  
Dew Point 18 °F    
Average Humidity 49    
Maximum Humidity 60    
Minimum Humidity 37    
Precipitation  
Precipitation 0.00 in 0.13 in 2.47 in (1950)
Month to date precipitation 0.04 0.50  
Year to date precipitation 0.04 0.50  
Snow  
Snow 0.00 in 0.10 in 1.00 in (1972)
Month to date snowfall 0.4 0.4  
Since 1 July snowfall 5.6 2.7  
Snow Depth 0.00 in    
Sea Level Pressure  
Sea Level Pressure 30.09 in    
Wind  
Wind Speed 10 mph (South)    
Max Wind Speed 21 mph    
Max Gust Speed 28 mph    
Visibility 10 miles    
Events      
T = Trace of Precipitation, MM = Missing Value Source: NWS Daily Summary

Daily Weather History Graph

Daily Weather History Graph

Search for Another Location

Airport or City:

Trip Planner

Search our weather history database for the weather conditions in past years. The results will help you decide how hot, cold, wet, or windy it might be!

Date:

Astronomy

Jan. 04, 2014 Rise Set
Actual Time 7:08 AM CST 4:51 PM CST
Civil Twilight 6:40 AM CST 5:20 PM CST
Nautical Twilight 6:07 AM CST 5:52 PM CST
Astronomical Twilight 5:36 AM CST 6:24 PM CST
Moon 9:20 AM CST (1/4) 9:04 PM CST (1/4)
Length of Visible Light 10h 40m
Length of Day
9h 42m
Waxing Crescent, 15% of the Moon is Illuminated
Jan 4
Waxing Crescent
Jan 7
First Quarter
Jan 15
Full
Jan 23
Last Quarter
Jan 30
New

Hourly Weather History & Observations

Time (CST) Temp. Windchill Dew Point Humidity Pressure Visibility Wind Dir Wind Speed Gust Speed Precip Events Conditions
12:53 AM 25.0 °F 15.5 °F 12.9 °F 60% 30.21 in 10.0 mi South 9.2 mph - N/A   Clear
1:53 AM 26.1 °F 16.2 °F 12.0 °F 55% 30.20 in 10.0 mi South 10.4 mph 18.4 mph N/A   Clear
2:53 AM 26.1 °F 16.2 °F 12.9 °F 58% 30.19 in 10.0 mi South 10.4 mph - N/A   Clear
3:53 AM 27.0 °F 18.7 °F 12.9 °F 56% 30.18 in 10.0 mi South 8.1 mph - N/A   Clear
4:53 AM 27.0 °F 19.5 °F 12.9 °F 56% 30.18 in 10.0 mi SSW 6.9 mph - N/A   Clear
5:53 AM 27.0 °F 18.7 °F 12.9 °F 56% 30.18 in 10.0 mi South 8.1 mph 18.4 mph N/A   Clear
6:53 AM 28.0 °F 19.3 °F 14.0 °F 56% 30.17 in 10.0 mi South 9.2 mph 20.7 mph N/A   Clear
7:53 AM 28.9 °F 18.2 °F 14.0 °F 54% 30.17 in 10.0 mi South 13.8 mph - N/A   Clear
8:53 AM 32.0 °F 22.5 °F 15.1 °F 50% 30.18 in 10.0 mi South 12.7 mph 21.9 mph N/A   Clear
9:53 AM 35.1 °F 27.9 °F 16.0 °F 46% 30.17 in 10.0 mi South 9.2 mph 27.6 mph N/A   Clear
10:53 AM 37.0 °F 29.3 °F 17.1 °F 44% 30.14 in 10.0 mi South 11.5 mph 25.3 mph N/A   Clear
11:53 AM 39.9 °F 32.1 °F 18.0 °F 41% 30.11 in 10.0 mi SSW 13.8 mph 21.9 mph N/A   Clear
12:53 PM 42.1 °F 36.1 °F 19.0 °F 40% 30.07 in 10.0 mi SSW 10.4 mph 21.9 mph N/A   Clear
1:53 PM 43.0 °F 37.2 °F 19.0 °F 38% 30.05 in 10.0 mi South 10.4 mph 17.3 mph N/A   Overcast
2:53 PM 43.0 °F 35.7 °F 19.9 °F 40% 30.01 in 10.0 mi SSE 15.0 mph 23.0 mph N/A   Mostly Cloudy
3:53 PM 44.1 °F 38.1 °F 19.0 °F 37% 29.99 in 10.0 mi SSE 11.5 mph - N/A   Overcast
4:53 PM 43.0 °F 37.7 °F 19.0 °F 38% 29.98 in 10.0 mi SSE 9.2 mph - N/A   Overcast
5:53 PM 43.0 °F 37.7 °F 19.0 °F 38% 29.99 in 10.0 mi South 9.2 mph - N/A   Overcast
6:53 PM 43.0 °F 37.7 °F 19.0 °F 38% 30.00 in 10.0 mi South 9.2 mph - N/A   Overcast
7:53 PM 44.1 °F 41.5 °F 21.0 °F 40% 30.01 in 10.0 mi SSW 4.6 mph - N/A   Overcast
8:53 PM 43.0 °F 39.5 °F 23.0 °F 45% 30.01 in 10.0 mi South 5.8 mph - N/A   Overcast
9:53 PM 43.0 °F 37.7 °F 25.0 °F 49% 30.00 in 10.0 mi South 9.2 mph - N/A   Overcast
10:53 PM 43.0 °F 36.8 °F 27.0 °F 53% 29.99 in 10.0 mi SSE 11.5 mph - N/A   Overcast
11:53 PM 44.1 °F 37.7 °F 32.0 °F 63% 29.96 in 10.0 mi SSE 12.7 mph - N/A   Overcast